Regional Weather Roundup
Issued by NWS Cleveland, OH

Home | Current Version | Previous Version | Graphics & Text | Print | Product List | Glossary On
Versions: 1 2 3 4 5 6 7 8 9 10 11 12 13 14 15 16 17 18 19 20 21 22 23 24 25 26 27 28 29 30 31 32 33 34 35 36 37 38 39 40 41 42 43 44 45 46 47 48 49 50
000
ASUS41 KCLE 220010
RWRCLE
OHIO REGIONAL WEATHER ROUNDUP
NATIONAL WEATHER SERVICE WILMINGTON, OH
800 PM EDT TUE OCT 21 2014

NOTE: "FAIR" INDICATES FEW OR NO CLOUDS BELOW 12,000 FEET WITH NO
SIGNIFICANT WEATHER AND/OR OBSTRUCTIONS TO VISIBILITY.

OHZ001>008-015>018-024>027-034-035-043-044-220100-
   NORTHWEST OHIO

CITY           SKY/WX    TMP DP  RH WIND       PRES   REMARKS
DEFIANCE       CLOUDY    47  36  65 N8        30.18R
FINDLAY        CLOUDY    47  38  71 N10       30.14R
TOLEDO EXPRESS CLOUDY    45  37  73 N9        30.16R
TOLEDO METCALF CLOUDY    46  37  71 N14       30.16R
LIMA           CLOUDY    47  36  65 N10       30.14R
$$

OHZ009>014-019>023-028>033-038-089-220100-
   NORTHEAST OHIO

CITY           SKY/WX    TMP DP  RH WIND       PRES   REMARKS
CLE-HOPKINS    LGT RAIN  47  44  90 N12       30.09R
CLE-LAKEFRONT  LGT RAIN  50  45  83 N21G28    30.05R
CUY CO. ARPT   LGT RAIN  50  48  93 N14       30.05R FOG
LORAIN-ELYRIA  LGT RAIN  45  43  93 N14G23    30.08R FOG
ASHTABULA      LGT RAIN  47  45  93 N8        30.03R FOG
AKRON-CANTON   LGT RAIN  47  43  86 NW8       30.03R FOG
WOOSTER        LGT RAIN  46  42  86 NW16G23   30.06R FOG
MANSFIELD      CLOUDY    43  42  97 NW16      30.09R FOG
YOUNGSTOWN     LGT RAIN  47  45  93 NW12      30.00R FOG
$$

OHZ042-051>053-060>062-070>072-077>081-220100-
  SOUTHWEST OHIO

CITY           SKY/WX    TMP DP  RH WIND       PRES   REMARKS
CINC-COVINGTON CLOUDY    52  40  63 N9        30.12R
CINC-LUNKEN    CLOUDY    50  44  80 N8        30.14R
HAMILTON       CLOUDY    48  45  89 CALM      30.14R
DAYTON         CLOUDY    48  42  80 NE12      30.15R
WRIGHT-PAT AFB CLOUDY    48  41  77 N8        30.14R
DAYTON GENERAL CLOUDY    49  46  90 NE6       30.12R
WILMINGTON     CLOUDY    48  41  76 N10       30.12R
$$

OHZ036-037-039>041-045>050-054>059-063>069-073>076-082>088-220100-
  CENTRAL AND SOUTHEAST OHIO

CITY           SKY/WX    TMP DP  RH WIND       PRES   REMARKS
COLUMBUS       CLOUDY    47  38  71 NW10      30.10R
OSU AIRPORT    CLOUDY    47  39  74 N10       30.11R
BOLTON FIELD   CLOUDY    46  41  81 NW9       30.12R
RICKENBACK AFB CLOUDY    47  38  71 N14       30.10R
NEWARK         CLOUDY    47  40  76 NW7       30.08S
MARION         CLOUDY    45  39  79 NW10      30.12R
LANCASTER      CLOUDY    47  40  76 NW10      30.09R
ZANESVILLE     CLOUDY    46  41  82 NW8       30.07R
NEW PHILLY     CLOUDY    47  43  86 NW8       30.05R FOG
$$



USA.gov is the U.S. government's official web portal to all federal, state and local government web resources and services.